Погода в Журавлеве

Россия / Красноярский край     54°09′39″N   93°15′08″E
темп.,
°C
ветер,
м/с
пор.,
м/с
влажн.,
%
обл.,
%
осадки,
мм/ч
давл.,
гПа
погр.,
м
2 декабря, чт
чт201:00−14св219780 0.0 103211
04:00−15всв1197100 0.0 103214
07:00−15всв1196100 0.0 103210
10:00−12всв1191100 0.0 103135
13:00−7в118467 0.0 102999
16:00−11всв1195100 0.0 10299
19:00−13св219676 0.0 103012
22:00−17св229829 0.0 103113
3 декабря, пт
пт301:00−18св2296100 0.0 103014
04:00−20св22975 0.0 103013
07:00−21св22975 0.0 102913
10:00−18всв21925 0.0 102825
13:00−9в118210 0.0 1024106
16:00−11св11955 0.0 102210
19:00−15св2297100 0.0 102213
22:00−14всв1197100 0.0 101919
4 декабря, сб
сб401:00−9в1196100 0.3 101821
04:00−8ююв2596100 1.0 1019173
07:00−6ю21096100 3.0 1022522
10:00−5ююв1397100 0.4 102498
13:00−2ююз31094100 0.6 1023754
16:00−2юз51377100 0.1 1023951
19:00−3зюз51278100 0.1 1025898
22:00−4зюз41181100 0.1 1029797
5 декабря, вс
вс501:00−9ююз1194100 0.1 103212
04:00−11юв1197100 0.0 103510
07:00−14юв1199100 0.0 10369
10:00−11вюв1197100 0.0 103633
13:00−5вюв139391 0.0 1033223
16:00−8всв119880 0.0 103210
19:00−12св2198100 0.0 103013
22:00−15св219966 0.0 103010
6 декабря, пн
пн601:00−18св2299100 0.0 103012
04:00−16св219898 0.0 102913
07:00−19св219919 0.0 102912
10:00−15всв1195100 0.0 102733
13:00−8в1188100 0.0 1024102
16:00−9в1196100 0.0 102310
19:00−13св1197100 0.0 102411
22:00−14св2198100 0.0 102412